Skip Page Navigation
NASA JPL Caltech
NASA Logo - Jet Propulsion Laboratory + View the NASA Portal
+ Center for Near-Earth Object Studies
JPL Home Earth Solar System Stars & Galaxies Technology
JPL Solar System Dynamics
BODIES ORBITS EPHEMERIDES TOOLS PHYSICAL DATA DISCOVERY FAQ SITE MAP
JPL Small-Body Database Browser
Search: [ help ]  
413758 (2006 DN113)
Classification: Main-belt Asteroid          SPK-ID: 2413758
Ephemeris | Orbit Diagram | Orbital Elements | Mission Design | Physical Parameters | Discovery Circumstances ]

[ show orbit diagram ]
Orbital Elements at Epoch 2459200.5 (2020-Dec-17.0) TDB
Reference: JPL 23 (heliocentric ecliptic J2000)
 Element Value Uncertainty (1-sigma)   Units 
e .06030228246850571 3.8943e-08  
a 2.99997306987202 2.9701e-08 au
q 2.819067846414688 1.181e-07 au
i 9.821428484691717 4.6425e-06 deg
node 158.9187454352216 2.5994e-05 deg
peri 267.339898775371 5.4628e-05 deg
M 46.15605508846773 4.4773e-05 deg
tp 2458957.167205685085
(2020-Apr-17.66720569)
0.00023676 TDB
period 1897.90496145015
5.20
2.8185e-05
7.717e-08
d
yr
n .1896828383466216 2.8169e-09 deg/d
Q 3.180878293329354 3.1492e-08 au
  Orbit Determination Parameters
   # obs. used (total)      346  
   data-arc span      5518 days (15.11 yr)  
   first obs. used      2006-02-27  
   last obs. used      2021-04-07  
   planetary ephem.      DE441  
   SB-pert. ephem.      SB441-N16  
   condition code      0  
   norm. resid. RMS      .52157  
   source      ORB  
   producer      Otto Matic  
   solution date      2021-May-04 12:42:29  

Additional Information
 Earth MOID = 1.85373 au 
 Jupiter MOID = 2.01172 au 
 T_jup = 3.228 
[ show covariance matrix ]

Ephemeris | Orbit Diagram | Orbital Elements | Mission Design | Physical Parameters | Discovery Circumstances ]

Physical Parameter Table
Parameter Symbol Value Units Sigma Reference Notes
absolute magnitude H 15.86   n/a MPCxxxxx  

413758 (2006 DN113)          Discovered 2006-Feb-27 by Spacewatch at Kitt Peak
Reference: Last Updated: 2014-11-10

Alternate Designations
 2006 DN113 = 2011 EW11 
Ephemeris | Orbit Diagram | Orbital Elements | Mission Design | Physical Parameters | Discovery Circumstances ]
ABOUT SSD CREDITS/AWARDS PRIVACY/COPYRIGHT GLOSSARY LINKS
FirstGov 2021-May-08 02:59 UT
(server date/time)  
NASA Home Page
Site Manager:   Ryan S. Park
Webmaster  Alan B. Chamberlin